EHI
0 0 0 0 0 0 0 0 0 0 0 0 0 0 0 0 0 0 0 0 0 0 0 0 0 0 0 0 0 0 0 0 0 0 0 0 0 0 0 0 0 0 0 0
0 0 0 0 0 0 0 0 0 0 0 0 0 0 0 0 0 0 0 0 0 0 0 0 0 0 0 0 0 0 0 0 0 0 0 0 0 0 0 0 0 0 0 0
0 0 0 0 0 0 0 0 0 0 0 0 0 0 0 0 0 0 0 0 0 0 0 0 0 0 0 0 0 0 0 0 0 0 0 0 0 0 0 0 0 0 0 0
0 0 0 0 0 0 0 0 0 0 0 0 0 0 0 0 0 0 0 0 0 0 0 0 0 0 0 0 0 0 0 0 0 0 0 0 0 0 0 0 0 0 0 0
0 0 0 0 0 0 0 0 0 0 0 0 0 0 0 0 0 0 0 0 0 0 0 0 0 0 0 0 0 0 0 0 0 0 0 0 0 0 0 0 0 0 0 0
0 0 0 0 0 0 0 0 0 0 0 0 0 0 0 0 0 0 0 0 0 0 0 0 0 0 0 0 0 0 0 0 0 0 0 0 0 0 0 0 0 0 0 0
0 0 0 0 0 0 0 0 0 0 0 0 0 0 0 0 0 0 0 0 0 0 0 0 0 0 0 0 0 0 0 0 0 0 0 0 0 0 0 0 0 0 0 0
0 0 0 0 0 0 0 0 0 0 0 0 0 0 0 0 0 0 0 0 0 0 0 0 0 0 0 0 0 0 0 0 0 0 0 0 0 0 0 0 0 0 0 0
0 0 0 0 0 0 0 0 0 0 0 0 0 0 0 0 0 0 0 0 0 0 0 0 0 0 0 0 0 0 0 0 0 0 0 0 0 0 0 0 0 0 0 0
0 0 0 0 0 0 0 0 0 0 0 0 0 0 0 0 0 0 0 0 0 0 0 0 0 0 0 0 0 0 0 0 0 0 0 0 0 0 0 0 0 0 0 0
0 0 0 0 0 0 0 0 0 0 0 0 0 0 0 0 0 0 0 0 0 0 0 0 0 0 0 0 0 0 0 0 0 0 0 0 0 0 0 0 0 0 0 0
0 0 0 0 0 0 0 0 0 0 0 0 0 0 0 0 0 0 0 0 0 0 0 0 0 0 0 0 0 0 0 0 0 0 0 0 0 0 0 0 0 0 0 0
0 0 0 0 0 0 0 0 0 0 0 0 0 0 0 0 0 0 0 0 0 0 0 0 0 0 0 0 0 0 0 0 0 0 0 0 0 0 0 0 0 0 0 0
0 0 0 0 0 0 0 0 0 0 0 0 0 0 0 0 0 0 0 0 0 0 0 0 0 0 0 0 0 0 0 0 0 0 0 0 0 0 0 0 0 0 0 0
0 0 0 0 0 0 0 0 0 0 0 0 0 0 0 0 0 0 0 0 0 0 0 0 0 0 0 0 0 0 0 0 0 0 0 0 0 0 0 0 0 0 0 0
0 0 0 0 0 0 0 0 0 0 0 0 0 0 0 0 0 0 0 0 0 0 0 0 0 0 0 0 0 0 0 0 0 0 0 0 0 0 0 0 0 0 0 0
0 0 0 0 0 0 0 0 0 0 0 0 0 0 0 0 0 0 0 0 0 0 0 0 0 0 0 0 0 0 0 0 0 0 0 0 0 0 0 0 0 0 0 0
0 0 0 0 0 0 0 0 0 0 0 0 0 0 0 0 0 0 0 0 0 0 0 0 0 0 0 0 0 0 0 0 0 0 0 0 0 0 0 0 0 0 0 0
0 0 0 0 0 0 0 0 0 0 0 0 0 0 0 0 0 0 0 0 0 0 0 0 0 0 0 0 0 0 0 0 0 0 0 0 0 0 0 0 0 0 0 0
0 0 0 0 0 0 0 0 0 0 0 0 0 0 0 0 0 0 0 0 0 0 0 0 0 0 0 0 0 0 0 0 0 0 0 0 0 0 0 0 0 0 0 0
0 0 0 0 0 0 0 0 0 0 0 0 0 0 0 0 0 0 0 0 0 0 0 0 0 0 0 0 0 0 0 0 0 0 0 0 0 0 0 0 0 0 0 0
0 0 0 0 0 0 0 0 0 0 0 0 0 0 0 0 0 0 0 0 0 0 0 0 0 0 0 0 0 0 0 0 0 0 0 0 0 0 0 0 0 0 0 0
0 0 0 0 0 0 0 0 0 0 0 0 0 0 0 0 0 0 0 0 0 0 0 0 0 0 0 0 0 0 0 0 0 0 0 0 0 0 0 0 0 0 0 0
0 0 0 0 0 0 0 0 0 0 0 0 0 0 0 0 0 0 0 0 0 0 0 0 0 0 0 0 0 0 0 0 0 0 0 0 0 0 0 0 0 0 0 0
0 0 0 0 0 0 0 0 0 0 0 0 0 0 0 0 0 0 0 0 0 0 0 0 0 0 0 0 0 0 0 0 0 0 0 0 0 0 0 0 0 0 0 0
0 0 0 0 0 0 0 0 0 0 0 0 0 0 0 0 0 0 0 0 0 0 0 0 0 0 0 0 0 0 0 0 0 0 0 0 0 0 0 0 0 0 0 0
Wind_Speed
1 3 5 6 6 2 3 5 6 3 1 5 9 11 8 8 9 9 9 8 7 6 5 4 3 2 2 1 1 2 2 3 2 2 2 2 2 3 3 4 6 6 6 6
4 5 3 2 3 3 4 6 5 2 1 5 7 11 8 8 10 10 10 9 8 7 6 5 3 3 2 1 1 1 1 2 2 2 2 1 2 2 3 3 5 6 6 6
6 1 3 4 4 4 6 6 5 3 1 4 6 9 8 6 8 8 8 8 8 7 7 6 5 4 2 2 1 1 1 1 2 2 1 1 1 1 2 3 4 5 6 6
3 2 3 4 5 5 6 3 3 3 5 4 4 8 5 5 6 7 8 8 8 8 7 6 5 4 3 2 1 0 1 1 2 2 1 2 2 2 3 3 3 5 5 6
4 3 4 4 3 4 1 1 1 4 5 6 6 8 5 4 6 7 8 8 8 8 7 6 6 4 3 2 1 1 1 1 1 1 1 1 2 2 2 3 4 4 4 5
1 1 1 1 2 2 5 3 1 2 4 8 7 9 7 4 5 3 4 6 7 7 6 6 5 4 3 2 1 1 1 0 1 1 1 2 2 3 3 4 4 4 3 4
2 2 1 2 4 3 2 2 2 4 5 6 2 7 7 1 1 2 2 3 5 6 6 6 5 5 4 3 2 1 1 0 1 1 1 2 2 3 3 4 4 4 4 4
6 5 5 3 3 5 5 5 5 6 6 4 3 8 4 1 1 1 1 2 4 5 5 5 5 5 4 3 2 2 1 1 1 2 2 2 3 3 3 4 4 4 4 5
6 4 2 1 1 3 5 5 2 2 3 6 6 6 5 2 2 2 2 2 3 4 4 4 4 4 3 3 3 2 2 2 2 2 2 3 3 3 4 5 5 4 5 5
3 3 2 1 2 1 2 3 4 4 5 8 7 6 4 3 4 3 3 4 3 3 3 4 3 3 3 2 2 2 2 2 2 3 3 3 4 4 5 5 5 6 6 6
3 4 2 3 7 7 5 4 5 4 4 6 7 4 0 3 2 3 3 3 3 4 4 3 3 3 2 2 2 2 2 2 3 3 3 4 4 4 5 5 6 6 6 7
3 3 3 4 0 3 5 6 7 6 6 5 6 5 3 1 1 1 1 2 2 3 3 3 3 2 2 2 2 2 3 3 3 3 4 4 4 5 5 5 6 6 7 7
5 5 3 2 3 3 5 5 6 3 3 6 8 6 3 1 1 1 1 2 2 3 2 2 2 3 2 2 2 2 3 3 3 4 4 4 4 5 5 6 6 6 7 7
3 5 7 8 3 6 7 8 9 8 7 9 12 11 5 3 3 2 2 2 2 3 3 3 3 3 3 3 3 3 3 3 4 4 5 5 5 5 6 6 6 6 7 7
4 5 5 6 3 4 7 10 12 14 14 12 12 12 10 6 5 3 3 3 3 3 3 3 3 3 3 3 3 3 3 3 4 4 5 5 5 5 6 6 6 6 7 7
4 4 2 4 3 4 7 10 13 15 15 16 14 13 5 3 2 3 3 3 4 4 4 3 3 3 3 3 3 3 3 3 4 5 5 5 5 5 5 6 6 7 7 7
5 5 4 4 0 3 10 10 12 10 9 10 13 9 2 3 4 4 4 4 5 4 3 3 3 3 3 3 4 4 4 4 4 5 5 5 5 5 6 6 6 7 7 7
5 4 3 2 2 9 3 1 5 9 8 8 6 3 3 3 3 3 4 4 4 3 3 3 3 3 3 3 3 3 3 3 4 4 5 5 5 5 6 6 7 7 7 7
5 5 4 4 6 10 4 2 3 5 6 5 6 5 2 1 2 2 1 2 3 3 3 3 3 2 2 2 2 2 3 3 3 4 5 5 5 6 6 7 7 7 7 7
3 4 4 5 6 8 2 2 1 3 5 3 4 4 2 2 3 1 1 2 3 3 2 2 2 2 2 2 2 2 3 3 4 5 5 6 6 6 6 7 7 7 7 7
6 6 8 8 8 8 1 3 4 5 2 2 3 3 3 3 2 2 2 3 3 2 2 2 1 2 2 2 2 2 3 4 4 5 5 6 6 6 6 6 6 6 7 7
8 8 8 7 8 7 5 6 6 1 2 1 1 2 2 1 1 1 2 2 2 2 2 1 1 2 2 2 2 3 4 4 4 5 5 6 6 5 5 6 6 6 6 7
7 6 4 7 5 2 4 3 0 1 1 0 1 1 2 1 2 2 2 2 2 2 2 2 2 2 2 2 2 4 4 4 4 5 5 6 6 5 5 6 6 6 5 5
4 1 3 4 4 2 2 1 0 0 0 0 0 1 2 2 2 2 2 2 2 2 2 2 2 2 3 3 3 4 4 4 5 5 5 5 5 5 5 5 5 5 5 5
2 4 3 4 2 1 2 3 2 1 1 1 1 0 1 1 2 2 2 2 2 3 2 2 2 3 3 3 4 4 4 4 5 5 5 5 5 5 5 5 5 6 5 6
4 5 5 4 3 3 2 1 2 2 2 1 1 0 1 1 2 2 2 2 2 3 2 2 3 3 3 4 4 4 4 4 5 5 5 4 4 5 5 5 5 7 8 10
Wind_Direction
106 188 205 206 215 272 215 221 236 233 191 234 242 252 235 204 211 214 208 203 202 198 184 175 168 153 130 99 76 56 45 31 20 12 8 11 15 10 15 13 8 3 359 357
165 220 229 173 176 191 206 229 243 243 221 252 264 264 250 215 214 217 214 209 206 198 187 182 180 170 162 141 103 65 48 31 19 6 353 344 352 1 5 360 3 1 358 356
200 125 142 156 172 203 226 237 242 250 264 239 277 262 219 204 211 216 220 218 209 200 195 189 188 186 178 169 153 72 45 32 21 8 6 355 345 336 346 350 351 354 353 351
206 156 164 179 198 213 238 246 230 226 244 243 246 275 220 193 204 215 216 212 208 202 199 193 191 190 188 180 155 99 52 37 30 14 360 354 334 338 340 334 334 340 347 349
189 169 178 200 214 214 182 81 208 241 247 261 233 255 252 189 231 223 215 212 209 202 200 197 194 191 184 173 163 145 92 48 34 18 1 339 335 333 328 324 329 336 341 344
117 125 265 142 63 122 126 116 116 200 229 250 230 237 261 209 224 209 204 208 205 199 197 195 188 183 177 168 164 163 142 60 20 2 342 329 327 325 324 324 325 329 328 329
192 179 116 126 123 137 189 187 226 228 224 243 165 238 260 215 201 219 219 209 201 193 191 190 187 188 183 181 183 192 192 237 308 304 306 310 309 308 310 314 318 320 319 320
201 213 184 187 195 187 203 223 229 247 256 259 214 240 260 64 335 284 239 193 187 189 193 194 195 194 191 192 198 210 236 260 280 289 297 301 300 299 300 304 305 305 306 308
208 202 93 127 344 192 182 216 293 268 277 266 241 253 273 204 224 210 203 196 195 195 198 199 198 197 197 201 210 222 237 262 278 284 291 291 294 296 297 297 294 296 298 301
208 200 173 145 167 0 288 164 176 210 238 257 258 251 249 206 210 206 214 215 209 202 203 202 201 202 203 206 217 231 240 252 273 279 284 290 292 295 295 294 293 295 297 298
202 188 170 195 211 200 172 194 216 215 249 254 265 257 222 198 197 212 217 217 211 203 203 203 203 202 202 210 218 229 242 256 272 280 282 286 290 291 292 293 294 295 295 296
179 189 206 216 344 301 230 218 196 213 226 236 265 271 79 143 143 227 244 226 206 203 204 203 201 204 211 223 233 240 250 259 274 281 279 282 287 289 289 292 295 296 295 294
163 180 191 208 198 199 229 222 220 234 221 219 237 253 96 84 341 302 271 231 201 200 198 198 205 218 227 240 254 261 261 266 276 280 278 281 285 289 291 294 296 296 296 295
182 210 229 242 251 186 215 219 209 204 224 237 241 257 265 271 275 275 262 232 212 201 202 211 223 230 237 247 257 267 273 276 278 278 276 280 285 290 293 295 296 295 295 294
201 229 241 271 269 217 231 223 210 217 229 242 256 259 261 257 256 255 240 225 217 221 227 231 238 242 245 253 263 271 278 282 279 276 276 281 285 287 289 292 294 296 294 294
206 225 226 260 244 247 255 241 226 231 238 246 260 265 269 285 272 256 239 220 225 232 242 250 254 255 257 261 268 273 279 283 279 275 277 283 283 284 288 292 296 297 296 297
192 188 205 246 260 284 254 233 217 220 224 229 244 255 232 256 253 255 246 235 235 242 252 257 261 265 273 276 278 279 285 287 282 280 283 284 282 285 291 294 295 297 299 299
186 185 209 223 195 242 257 96 212 222 235 232 245 252 242 262 287 280 259 245 250 259 263 265 270 278 287 288 289 292 291 286 288 289 290 291 290 290 293 294 294 297 297 296
204 187 197 208 238 261 261 204 191 211 246 227 227 239 269 351 303 263 242 261 272 273 273 273 274 279 285 284 290 291 293 297 295 294 295 296 294 293 294 295 296 297 296 295
170 199 208 207 231 246 244 141 175 195 246 186 202 218 213 186 259 288 26 319 299 298 296 297 298 296 287 294 295 286 293 297 299 301 299 298 296 292 292 293 295 295 294 293
175 192 214 221 236 257 100 135 160 207 265 136 195 200 193 214 281 355 337 324 323 318 318 316 303 295 297 298 291 288 294 297 304 304 300 298 296 293 291 292 293 294 293 293
188 188 201 205 223 241 136 155 196 244 62 123 174 195 204 244 327 314 320 327 331 334 335 329 314 313 317 308 294 292 297 306 307 303 300 300 300 298 296 295 295 295 293 292
213 210 203 206 222 53 154 185 182 86 134 174 199 186 170 204 252 284 311 320 323 326 325 322 313 315 320 314 302 296 307 313 307 303 302 301 301 300 300 298 297 296 295 292
214 211 209 232 239 216 195 218 220 145 145 23 158 170 180 214 245 280 302 313 321 323 322 318 308 307 314 319 316 309 310 311 305 302 303 303 303 303 302 300 297 295 298 298
196 176 203 234 241 219 222 219 205 149 110 104 85 192 211 211 246 271 289 300 307 310 310 304 299 299 307 317 316 318 316 310 303 302 303 304 303 303 301 298 298 298 293 298
189 192 199 224 194 198 207 163 160 160 163 158 146 294 292 258 256 275 279 287 294 298 302 302 301 302 308 312 312 315 315 308 302 301 304 304 303 303 303 302 301 296 297 305